Location: General Nathan Twining Observatory
(34.5931°N, 106.8201°W)
Time: 14:10:46
(UTC-06:00)

FALCON 9 R/B - Pass Details

Date: 20 September 2017
Orbit: 296 x 10249 km, 34.5° (Epoch: 18 October)

Event Time Altitude Azimuth Distance (km) Brightness Sun altitude
Rises 21:57:21 0° 276° (W) 2,731 5.7 -34.6°
Reaches altitude 10° 21:58:48 10° 276° (W) 2,125 5.0 -34.9°
Enters shadow 22:01:41 51° 270° (W) 1,242 3.2 -35.4°
